Orbital Elements at Epoch 2459200.5 (2020-Dec-17.0) TDB
Reference: JPL 24 (heliocentric ecliptic J2000)
Element | Value | Uncertainty (1-sigma) | Units |
e | .186240305016864 | 3.7635e-08 | |
a | 2.249778390936416 | 7.2011e-09 | au |
q | 1.830778977188068 | 8.7067e-08 | au |
i | 6.758378234432493 | 4.0853e-06 | deg |
node | 140.2120928588092 | 2.9961e-05 | deg |
peri | 226.243338303068 | 3.1628e-05 | deg |
M | 107.0022461897044 | 1.0173e-05 | deg |
tp | 2458834.148113539613 (2019-Dec-16.64811354) | 3.4385e-05 | TDB |
period | 1232.559911797713 3.37 | 5.9178e-06 1.62e-08 | d yr |
n | .2920750517311024 | 1.4023e-09 | deg/d |
Q | 2.668777804684764 | 8.5422e-09 | au |
|
| | Orbit Determination Parameters
Additional Information
|